Location: Isle of Man Observatory
(54.1776°N, 4.6264°W)
Time: 09:10:53
(UTC+01:00)

ISS - Visible Passes

Search period start: 25 January 2021 00:00
Search period end: 04 February 2021 00:00
Orbit: 418 x 421 km, 51.6° (Epoch: 25 January)

Date Brightness Start Highest point End Pass type
(mag) Time Alt. Az. Time Alt. Az. Time Alt. Az.
25 Jan -3.1 19:32:42 10° WSW 19:35:57 44° SSE 19:37:00 32° ESE visible
25 Jan -0.7 21:09:13 10° W 21:09:59 16° W 21:09:59 16° W visible
26 Jan -2.7 18:45:31 10° SW 18:48:40 37° SSE 18:51:35 12° E visible
26 Jan -2.8 20:21:54 10° W 20:24:33 45° SW 20:24:33 45° SW visible
27 Jan -3.4 19:34:34 10° WSW 19:37:53 55° S 19:39:07 33° ESE visible
27 Jan -0.8 21:11:15 10° W 21:12:05 16° W 21:12:05 16° W visible
28 Jan -3.1 18:47:16 10° WSW 18:50:33 51° S 18:53:41 11° E visible
28 Jan -2.8 20:23:52 10° W 20:26:40 44° SW 20:26:40 44° SW visible
29 Jan -3.3 19:36:29 10° W 19:39:49 54° S 19:41:15 29° ESE visible
29 Jan -0.8 21:13:20 10° W 21:14:13 16° WSW 21:14:13 16° WSW visible
30 Jan -3.2 18:49:07 10° W 18:52:27 56° S 18:55:47 10° ESE visible
30 Jan -2.4 20:25:52 10° W 20:28:51 34° SSW 20:28:51 34° SSW visible
31 Jan -2.8 19:38:26 10° W 19:41:39 42° SSW 19:43:31 21° SE visible
31 Jan -0.6 21:15:46 10° WSW 21:16:30 13° WSW 21:16:30 13° WSW visible
01 Feb -2.9 18:51:00 10° W 18:54:18 49° S 18:57:35 10° ESE visible
01 Feb -1.7 20:28:02 10° W 20:30:39 21° SSW 20:31:15 20° SSW visible
02 Feb -1.9 19:40:27 10° W 19:43:22 27° SSW 19:46:06 11° SSE visible
03 Feb -2.2 18:52:56 10° W 18:56:02 34° SSW 18:59:08 10° SE visible
03 Feb -0.7 20:31:04 10° WSW 20:32:07 11° SW 20:33:11 10° SSW visible
